This demonstration page uses our WeatherBlox Daily Observations layout. Learn more.

Left ArrowRight Arrow

31.31129, -92.44514

Hourly Observations for December 23, 2021

Temp ( °F °C ) Dew Point ( °F °C ) Humidity (%) Winds ( mph kmh ) Pressure ( in mb ) Visibility ( mi km ) Precip ( " mm )
12:53 am 00:53 Clear 43 6.1 39 3.9 86 86 ESE 3 6 30.16 1021 10 16 0.00 0.00
1:53 am 01:53 Clear 43 6.1 39 3.9 86 86 ESE 3 6 30.16 1022 8 13 0.00 0.00
2:53 am 02:53 Clear 42 5.6 38 3.3 85 85 Calm 30.16 1021 8 13 0.00 0.00
3:53 am 03:53 Clear 40 4.4 37 2.8 89 89 SE 3 6 30.16 1021 8 13 0.00 0.00
4:53 am 04:53 Clear 42 5.6 38 3.3 85 85 ESE 3 6 30.16 1021 8 13 0.00 0.00
5:53 am 05:53 Clear 41 5 38 3.3 89 89 Calm 30.17 1022 9 14 0.00 0.00
6:53 am 06:53 Clear 42 5.6 38 3.3 85 85 ESE 6 9 30.18 1022 10 16 0.00 0.00
7:53 am 07:53 Sunny 43 6.1 40 4.4 89 89 SE 5 7 30.20 1023 7 11 0.00 0.00
8:53 am 08:53 Sunny 50 10 43 6.1 77 77 SSE 6 9 30.21 1023 10 16 0.00 0.00
9:53 am 09:53 Sunny 56 13.3 44 6.7 65 65 S 8 13 30.21 1023 10 16 0.00 0.00
10:53 am 10:53 Sunny 63 17.2 45 7.2 52 52 SSE 10 17 30.19 1022 10 16 0.00 0.00
11:53 am 11:53 Sunny 68 20 53 11.7 59 59 S 10 17 30.15 1021 10 16 0.00 0.00
12:53 pm 12:53 Sunny 69 20.6 53 11.7 57 57 S 10 17 30.12 1020 10 16 0.00 0.00
1:53 pm 13:53 Sunny 69 20.6 53 11.7 57 57 SSW 9 15 30.09 1019 10 16 0.00 0.00
2:53 pm 14:53 Sunny 70 21.1 54 12.2 57 57 S 12 19 30.08 1019 10 16 0.00 0.00
3:53 pm 15:53 Sunny 69 20.6 54 12.2 59 59 S 13 20 30.08 1019 10 16 0.00 0.00
4:53 pm 16:53 Cloudy 67 19.4 54 12.2 63 63 S 12 19 30.09 1019 10 16 0.00 0.00
5:53 pm 17:53 Cloudy 64 17.8 54 12.2 70 70 SSE 8 13 30.08 1019 10 16 0.00 0.00
6:53 pm 18:53 Clear 61 16.1 53 11.7 75 75 SSE 9 15 30.08 1019 10 16 0.00 0.00
7:53 pm 19:53 Clear 59 15 53 11.7 81 81 SSE 8 13 30.07 1018 10 16 0.00 0.00
8:53 pm 20:53 Mostly Clear 58 14.4 53 11.7 84 84 SSE 9 15 30.07 1018 10 16 0.00 0.00
9:53 pm 21:53 Partly Cloudy 59 15 53 11.7 81 81 SSE 12 19 30.07 1018 10 16 0.00 0.00
10:53 pm 22:53 Clear 57 13.9 53 11.7 87 87 SSE 8 13 30.06 1018 10 16 0.00 0.00
11:53 pm 23:53 Clear 56 13.3 53 11.7 90 90 SE 9 15 30.04 1017 10 16 0.00 0.00

Powered by AerisWeather